Location: Fairmont
(43.6520°N, 94.4610°W)
Time: 02:57:16
(UTC-05:00)

Cosmos-2242 - Visible Passes

Search period start: 20 September 2014 00:00
Search period end: 30 September 2014 00:00
Orbit: 597 x 624 km, 82.5° (Epoch: 18 September)

Date Brightness Start Highest point End Pass type
(mag) Time Alt. Az. Time Alt. Az. Time Alt. Az.
20 Sep 4.0 06:03:22 10° N 06:07:36 51° ENE 06:11:47 10° SSE visible
20 Sep 5.7 20:12:34 10° SW 20:16:14 25° WNW 20:19:54 10° NNW visible
21 Sep 3.0 06:17:52 10° N 06:22:13 90° E 06:26:30 10° S visible
21 Sep 6.3 20:28:22 10° WSW 20:31:02 16° WNW 20:33:41 10° NNW visible
22 Sep 6.2 04:56:13 10° NNE 04:58:43 15° ENE 05:01:11 10° ESE visible
22 Sep 3.2 06:32:32 10° NNW 06:36:44 51° W 06:40:53 10° S visible
23 Sep 5.4 05:09:58 10° NNE 05:13:31 24° ENE 05:17:02 10° SE visible
24 Sep 4.4 05:24:08 10° N 05:28:14 41° ENE 05:32:16 10° SSE visible
25 Sep 3.2 05:38:32 10° N 05:42:51 72° E 05:47:07 10° SSE visible
25 Sep 6.1 19:48:28 10° WSW 19:51:35 19° WNW 19:54:43 10° NNW visible
26 Sep 6.3 04:17:30 10° NE 04:19:14 12° ENE 04:20:58 10° E visible
26 Sep 2.9 05:53:08 10° NNW 05:57:24 64° W 06:01:37 10° S visible
26 Sep 6.6 20:05:01 10° W 20:06:26 11° WNW 20:07:51 10° NW visible
27 Sep 5.6 04:30:52 10° NNE 04:34:04 20° ENE 04:37:14 10° ESE visible
27 Sep 3.5 06:07:56 10° NNW 06:11:52 36° W 06:15:46 10° SSW visible
28 Sep 4.7 04:44:53 10° N 04:48:48 33° ENE 04:52:40 10° SE visible
28 Sep 4.2 06:23:01 10° NW 06:26:15 21° W 06:29:28 10° SW visible
29 Sep 3.6 04:59:12 10° N 05:03:27 57° E 05:07:39 10° SSE visible
29 Sep 4.8 06:38:47 10° WNW 06:40:34 12° W 06:42:21 10° WSW visible
